Weather Roundup
Issued by NWS Chicago, IL

Home | Current Version | Previous Version | Text Only | Print | Product List | Glossary On
Versions: 1 2 3 4 5 6 7 8 9 10 11 12 13 14 15 16 17 18 19 20 21 22 23 24 25 26 27 28 29 30 31 32 33 34 35 36 37 38 39 40 41 42 43 44 45 46 47 48 49 50
000
NZUS59 KLOT 262008
HRRLOT

CHICAGO AREA WEATHER ROUNDUP
NATIONAL WEATHER SERVICE CHICAGO/ROMEOVILLE IL
300 PM CDT THU MAY 26 2016

NOTE: "FAIR" INDICATES FEW OR NO CLOUDS BELOW 12,000 FEET WITH NO
SIGNIFICANT WEATHER AND/OR OBSTRUCTIONS TO VISIBILITY.

* THESE STATIONS ARE NOT UNDER NWS QUALITY CONTROL. THEY ALSO MAY NOT
  REPORT WEATHER SUCH AS PRECIPITATION OR FOG.

ILZ005-006-012>014-019>023-262100-
NORTHEAST ILLINOIS

CITY           SKY/WX    TMP DP  RH WIND       PRES   REMARKS
OHARE          PTSUNNY   80  63  55 SW13G22   29.87F HX  81
MIDWAY         PTSUNNY   82  62  50 SW15      29.87F HX  83
AURORA           N/A     82  64  54 SW7       29.88F HX  83
LANSING*         N/A     80  62  54 SW12      29.90S HX  81
JOLIET*          N/A     83  65  54 SW8       29.88F HX  85
WAUKEGAN         N/A     82  62  50 SW16      29.86S HX  83
DUPAGE AIRPORT   N/A     82  62  50 SW14      29.87F HX  83
WHEELING         N/A     81  60  48 SW14G22   29.88S HX  82
KANKAKEE*        N/A     81  67  60 SW10      29.90F HX  84
MORRIS*          N/A     84  62  47 SW5       29.87F HX  85
LEWIS AIRPORT*   N/A     81  61  51 SW13      29.88F HX  81
$$

WIZ051-052-058>065-066-070>072-262100-
SOUTHEAST WISCONSIN

CITY           SKY/WX    TMP DP  RH WIND       PRES   REMARKS
MILWAUKEE      PTSUNNY   82  60  47 SW16      29.85F HX  82
KENOSHA*         N/A     82  62  50 SW15G22   29.86F HX  83
RACINE*          N/A     83  62  49 W13       29.87F HX  84
BURLINGTON       N/A     81  58  45 SW15      29.86F HX  81
WAUKESHA       MOSUNNY   79  61  53 SW15G23   29.86F HX  80
WEST BEND        N/A     81  55  41 W15G21    29.85S HX  80
$$

INZ001>003-010>013-019-020-262100-
NORTHWEST INDIANA

CITY           SKY/WX    TMP DP  RH WIND       PRES   REMARKS
GARY*          PTSUNNY   82  70  65 SW12      29.90R HX  86
MICHIGAN CITY* NOT AVBL
RENSSELAER*    NOT AVBL
VALPARAISO       N/A     80  61  52 SW15G23   29.91R HX  81
$$

LMZ740>746-262100-
SOUTHERN LAKE MICHIGAN

STATION/POSITION TIME  SKY/WX   TEMP WIND        PRES    VSBY
                                AIR  DIR/SP/G
                 (UTC)          (F)  (DEG/KT/KT) (MB)    (MI)
HARRISON CRIB    1900            74  190/  9/ 11   N/A
BURNHAM HARBOR   2000            80  190/  8/ 17   N/A
CALUMET HARBOR   1900            78  200/ 12/ 17 1011.3F
BURNS HARBOR     1900            78  210/ 15/ 21 1012.2S
MICHIGAN CITY    1900            79  190/ 18/ 20   N/A
$$

ABBREVIATIONS USED IN REMARKS
   TC - TEMPERATURE IN CELSIUS
  WCI - WIND CHILL INDEX
   HX - HEAT INDEX
  VSB - VISIBILITY
$$



USA.gov is the U.S. government's official web portal to all federal, state and local government web resources and services.